{"data":{"norad_id":68399,"intl_designator":"2026-063V","name":"STARLINK-37187","alt_names":[],"object_type":"PAYLOAD","status":"ACTIVE","operator":null,"country":"US","launch_date":"2026-03-26","launch_site_code":"AFWTR","launch_vehicle":null,"mission":null,"orbit_class":"UNKNOWN","rcs_meters":null,"size_class":null,"mass_kg":null,"dimensions":null,"purposes":["comms"],"wikipedia_slug":null,"has_3d_model":false,"image_url":null,"decayed_at":null,"tle_current":{"epoch":"2026-09-19T15:29:59.917632Z","epoch_age_seconds":121869,"freshness":"FRESH","line1":"1 68399U 26063V   26262.64583238  .00019667  00000+0  60977-3 0  9999","line2":"2 68399  97.2873  43.6110 0001431  96.9838 263.1568 15.33453216 27621","mean_motion":15.33453216,"eccentricity":0.0001431,"inclination_deg":97.2873,"raan_deg":43.611,"arg_perigee_deg":96.9838,"mean_anomaly_deg":263.1568,"bstar":0.00060977,"rev_number":2762,"period_min":93.90570152223,"perigee_km":464.53940241683,"apogee_km":466.49805668662,"semimajor_km":6843.6557295517,"source":"CELESTRAK","updated_at":"2026-09-20T09:00:43.898248Z"}}}